FW4781 Weather Reports


time (UTC)temp
C
wind
direction
speed
KPH
gust
KPH
rain 1hr
cm
rain 24hr
cm
rain mn
cm
humidity
%
barometer
mb
20260507015104 12 107 0.0 0.0 0.00 0.00 0.00 88 1018.9
20260507014104 12 107 0.0 0.0 0.00 0.00 0.00 88 1018.9
20260507013103 13 107 0.0 0.0 0.00 0.00 0.00 88 1018.9
20260507010104 12 107 0.0 0.0 0.00 0.00 0.00 88 1019.0
20260507005104 12 107 0.0 0.0 0.00 0.00 0.00 88 1019.1
20260507004104 12 107 0.0 0.0 0.00 0.00 0.00 88 1019.0
20260507003104 13 107 0.0 0.0 0.00 0.00 0.00 88 1019.0
20260507001115 13 107 4.8 11.3 0.00 0.00 0.00 87 1019.0
20260506235105 13 103 8.0 12.9 0.00 0.00 0.00 86 1018.9
20260506233104 13 104 6.4 11.3 0.00 0.00 0.00 84 1019.0
20260506232104 13 126 0.0 0.0 0.00 0.00 0.00 81 1019.0
20260506231105 14 126 0.0 0.0 0.00 0.00 0.00 82 1019.0
20260506230104 14 125 0.0 9.7 0.00 0.00 0.00 82 1019.0
20260506225104 14 125 0.0 9.7 0.00 0.00 0.00 82 1019.0
20260506224104 13 126 0.0 4.8 0.00 0.00 0.00 81 1019.1
20260506223104 13 126 0.0 8.0 0.00 0.00 0.00 81 1019.1
20260506220104 14 126 3.2 9.7 0.00 0.00 0.00 80 1019.2
20260506215103 14 132 1.6 4.8 0.00 0.00 0.00 79 1019.4
20260506214104 14 137 0.0 8.0 0.00 0.00 0.00 80 1019.4
20260506213103 13 140 0.0 11.3 0.00 0.00 0.00 80 1019.4
20260506212103 13 207 0.0 11.3 0.00 0.00 0.00 80 1019.4
20260506211104 13 130 3.2 14.5 0.00 0.00 0.00 80 1019.4
20260506205104 13 163 1.6 8.0 0.00 0.00 0.00 79 1019.3
20260506204104 14 118 0.0 12.9 0.00 0.00 0.00 81 1019.1
20260506203104 13 144 0.0 8.0 0.00 0.00 0.00 80 1019.1
20260506202103 13 213 1.6 12.9 0.00 0.00 0.00 80 1019.1
20260506200104 13 196 1.6 11.3 0.00 0.00 0.00 80 1019.1
20260506195103 13 146 0.0 0.0 0.00 0.00 0.00 81 1019.0
20260506194104 13 207 0.0 4.8 0.00 0.00 0.00 82 1019.0
20260506193103 13 160 0.0 9.7 0.00 0.00 0.00 81 1019.0
20260506192104 13 225 1.6 11.3 0.00 0.00 0.00 81 1019.0
20260506190105 13 268 3.2 11.3 0.00 0.00 0.00 83 1019.0
20260506184103 12 181 1.6 11.3 0.00 0.00 0.00 84 1018.9
20260506183103 12 160 0.0 9.7 0.00 0.00 0.00 85 1018.9
20260506182104 12 221 4.8 12.9 0.00 0.00 0.00 85 1018.8
20260506181103 13 151 0.0 9.7 0.00 0.00 0.00 85 1018.5
20260506180104 12 134 3.2 14.5 0.00 0.00 0.00 85 1018.5
20260506175104 12 128 1.6 9.7 0.00 0.00 0.00 87 1018.6
20260506174104 12 213 3.2 16.1 0.00 0.00 0.00 87 1018.2
20260506173104 12 124 1.6 11.3 0.00 0.00 0.00 88 1018.2
20260506172104 12 134 1.6 9.7 0.00 0.00 0.00 89 1018.4
20260506171104 12 131 0.0 8.0 0.00 0.00 0.00 88 1018.5
20260506170104 12 119 3.2 16.1 0.00 0.00 0.00 88 1018.5
20260506165104 12 98 1.6 11.3 0.00 0.00 0.00 88 1018.3
20260506164104 12 156 0.0 8.0 0.00 0.00 0.00 88 1018.3
20260506163104 12 177 0.0 9.7 0.00 0.00 0.00 88 1018.3
20260506162105 12 132 1.6 4.8 0.00 0.00 0.00 87 1018.3
20260506161104 12 129 0.0 16.1 0.00 0.00 0.00 88 1017.9
20260506155105 12 158 3.2 14.5 0.00 0.00 0.00 90 1017.7
20260506154104 12 128 8.0 14.5 0.00 0.00 0.00 90 1017.8
20260506153104 12 124 8.0 16.1 0.00 0.00 0.00 90 1017.8
20260506152104 12 123 3.2 12.9 0.00 0.00 0.00 91 1017.9
20260506151104 12 125 8.0 12.9 0.00 0.00 0.00 91 1018.0
20260506145104 11 123 3.2 14.5 0.00 0.00 0.00 92 1017.9
20260506144104 11 120 9.7 19.3 0.00 0.00 0.00 92 1017.6
20260506143104 12 125 11.3 16.1 0.00 0.00 0.00 91 1017.6
20260506142104 12 119 8.0 12.9 0.00 0.00 0.00 91 1017.7
20260506141104 11 139 0.0 9.7 0.00 0.00 0.00 91 1017.5
20260506140104 11 202 0.0 8.0 0.00 0.00 0.00 91 1017.5
20260506134104 11 152 3.2 11.3 0.00 0.00 0.00 91 1017.5
20260506131104 11 192 0.0 14.5 0.00 0.00 0.00 91 1017.4
20260506130104 11 200 0.0 11.3 0.00 0.00 0.00 91 1017.4
20260506125104 11 229 0.0 11.3 0.00 0.00 0.00 92 1017.3
20260506124104 11 161 0.0 8.0 0.00 0.00 0.00 93 1016.9
20260506123104 11 187 0.0 0.0 0.00 0.00 0.00 93 1016.9
20260506122104 11 187 0.0 0.0 0.00 0.00 0.00 93 1017.1
20260506121104 11 185 0.0 0.0 0.00 0.00 0.00 94 1016.9
20260506115105 11 194 0.0 0.0 0.00 0.00 0.00 95 1016.8
20260506111104 11 219 0.0 8.0 0.00 0.00 0.00 96 1016.4
20260506110104 10 98 0.0 0.0 0.00 0.00 0.00 96 1016.4
20260506105104 10 96 0.0 0.0 0.00 0.00 0.00 96 1016.4
20260506104104 10 96 0.0 0.0 0.00 0.00 0.00 96 1016.4
20260506103104 10 96 0.0 0.0 0.00 0.00 0.00 96 1016.4
20260506101105 9 96 0.0 0.0 0.00 0.00 0.00 96 1016.3
20260506100104 8 96 0.0 0.0 0.00 0.00 0.00 96 1016.3
20260506094105 9 96 0.0 0.0 0.00 0.00 0.00 96 1015.9
20260506093104 9 96 0.0 0.0 0.00 0.00 0.00 95 1015.9
20260506092104 9 96 0.0 0.0 0.00 0.00 0.00 95 1015.9
20260506091104 9 96 0.0 0.0 0.00 0.00 0.00 95 1015.9
20260506090104 9 96 0.0 0.0 0.00 0.00 0.00 95 1015.9
20260506085104 9 96 0.0 0.0 0.00 0.00 0.00 95 1015.8
20260506083104 10 96 0.0 0.0 0.00 0.00 0.00 95 1015.6
20260506082104 10 96 0.0 0.0 0.00 0.00 0.00 95 1015.4
20260506081105 10 96 0.0 0.0 0.00 0.00 0.00 95 1015.3
20260506080105 10 96 0.0 0.0 0.00 0.00 0.00 95 1015.3
20260506073105 10 96 0.0 0.0 0.00 0.00 0.00 95 1015.3
20260506072105 10 96 0.0 0.0 0.00 0.00 0.00 95 1015.0
20260506071104 10 96 0.0 0.0 0.00 0.00 0.00 95 1014.9
20260506070104 10 96 0.0 0.0 0.00 0.00 0.00 95 1014.9
20260506062104 11 96 0.0 0.0 0.00 0.00 0.00 94 1014.7
20260506061105 11 96 0.0 0.0 0.00 0.00 0.00 94 1014.6
20260506060104 11 96 0.0 0.0 0.00 0.00 0.00 94 1014.6
20260506050104 12 96 0.0 0.0 0.00 0.00 0.00 93 1013.8
20260506045104 12 96 0.0 0.0 0.00 0.00 0.00 92 1013.8
20260506044104 12 96 0.0 0.0 0.00 0.00 0.00 92 1013.8
20260506040104 13 96 0.0 0.0 0.00 0.00 0.00 90 1013.6
20260506035104 13 96 0.0 0.0 0.00 0.00 0.00 90 1013.4
20260506034104 13 96 0.0 0.0 0.00 0.00 0.00 90 1013.3
20260506033104 13 96 0.0 0.0 0.00 0.00 0.00 90 1013.3
20260506032105 13 96 0.0 0.0 0.00 0.00 0.00 89 1013.3
20260506031104 13 96 0.0 0.0 0.00 0.00 0.00 89 1013.2
20260506025104 14 96 0.0 0.0 0.00 0.00 0.00 88 1013.2
20260506024104 14 96 0.0 0.0 0.00 0.00 0.00 88 1013.2
20260506023104 14 96 0.0 0.0 0.00 0.00 0.00 88 1013.2
20260506022104 14 96 0.0 0.0 0.00 0.00 0.00 88 1013.2
20260506021104 14 96 0.0 0.0 0.00 0.00 0.00 88 1013.2
20260506020104 14 96 0.0 0.0 0.00 0.00 0.00 87 1013.2